Regional Weather Roundup
Issued by NWS

Home | Current Version | Previous Version | Graphics & Text | Print | Product List | Glossary On
Versions: 1 2 3 4 5 6 7 8 9 10 11 12 13 14 15 16 17 18 19 20 21 22 23 24 25 26 27 28 29 30 31 32 33 34 35 36 37 38 39 40 41 42 43 44 45 46 47 48 49 50
000
ASUS45 KSLC 200610
RWRUT

UTAH REGIONAL WEATHER ROUNDUP
NATIONAL WEATHER SERVICE SALT LAKE CITY UT
1100 PM MST FRI DEC 19 2014

UTZ001>011-023>025-200700-

NORTHERN UTAH

CITY           SKY/WX    TMP DP  RH WIND       PRES   REMARKS
BRIGHAM CITY   CLOUDY    38  34  84 CALM      30.16S
HILL AFB       FLURRIES  37  32  81 E7        30.15R WCI  32
LOGAN          MIX PCPN  36  33  89 N6        30.14R WCI  31
OGDEN          CLOUDY    40  32  73 CALM      30.15R
PROVO AIRPORT  CLOUDY    37  27  65 N6        30.15S WCI  33
SALT LAKE CITY CLOUDY    41  30  65 N3        30.15R
VERNAL         CLOUDY    28  22  78 CALM      30.21R
WENDOVER       PTCLDY    32  27  80 E7        30.13F WCI  26
HEBER CITY     CLOUDY    30  25  80 E6        30.14S WCI  24
WEST JORDAN    CLOUDY    39  30  70 SW3       30.16R

$$

UTZ012>022-026-027-200700-

SOUTHERN/CENTRAL UTAH

CITY           SKY/WX    TMP DP  RH WIND       PRES   REMARKS
BLANDING       PTCLDY    27  25  92 N3        30.28R
BRYCE CANYON   MOCLDY    21  18  88 W5        30.19R WCI  15
CEDAR CITY     CLOUDY    36  26  67 S6        30.16S WCI  31
DELTA          MOCLDY    39  27  62 S16       30.14S WCI  30
MILFORD        CLOUDY    37  29  72 SW15      30.15S WCI  28
MOAB/CYNLANDS  PTCLDY    30  28  92 SW3       30.21S
PRICE          CLOUDY    27  22  81 NW3       30.20S
ST GEORGE      PTCLDY    43  34  70 CALM      30.21S

$$

REGIONAL REPORTS     COLORADO/ARIZONA

CITY           SKY/WX    TMP DP  RH WIND       PRES   REMARKS
CRAIG, CO      CLOUDY    19  16  88 CALM      30.19R
GRAND JUNCTION MOCLDY    30  27  88 CALM      30.23R
RIFLE          MOCLDY    25  21  85 E6        30.23R WCI  18
MONTROSE       CLEAR     25  21  85 SE5       30.24R WCI  19
CORTEZ         CLEAR     24  22  91 NE7       30.21S WCI  16
PAGE, AZ       CLOUDY    38  29  70 SW5       30.21S WCI  34
GRAND CANYON   CLOUDY    26  24  92 CALM      30.21S
KINGMAN        CLOUDY    41  34  76 W5        30.17S
FLAGSTAFF      CLOUDY    26  23  88 CALM      30.21R

$$

REGIONAL REPORTS    NEVADA/IDAHO/WYOMING

CITY           SKY/WX    TMP DP  RH WIND       PRES   REMARKS
LAS VEGAS, NV  PTCLDY    50  39  66 SW8       30.15R
ELY            PTCLDY    27  25  92 E3        30.15S
ELKO           CLOUDY    34  32  92 CALM      30.14R
POCATELLO, ID  LGT RAIN  36  34  92 SW10      30.11R WCI  28
BURLEY         CLOUDY    38  34  85 W6        30.09S WCI  33
EVANSTON, WY   CLOUDY    30  21  69 SW16G25   30.10S WCI  19
ROCK SPRINGS   CLOUDY    30  21  69 W8        30.10R WCI  22
KEMMERER       CLOUDY    28  27  93 W7        30.09R WCI  21

$$


USA.gov is the U.S. government's official web portal to all federal, state and local government web resources and services.